When you browse on this site, cookies collect data to enhance your experience and personalize the content and advertising you see.
Visit our Privacy Policy to learn more. By continuing to use the site, you agree to this use of cookies and data.
  • In Austria
  • List of Countries
  • For 7 days
  • Water Temperature
  • Satellite Maps
  • Weather Map
  • News
  • Weather Widgets
  • user-avatar
    Login

    Hourly Weather Yampol

    Today, 17 February, Sunday

    Time Temperature Precipitation Wind Pressure Humidity
    00:00 +1°C° 0 mm 2 mps 758 mmHg 92%
    01:00 +1°C° 0 mm 2 mps 758 mmHg 92%
    02:00 +1°C° 0 mm 2 mps 757 mmHg 92%
    03:00 +1°C° 0 mm 2 mps 757 mmHg 92%
    04:00 +1°C° 0 mm 2 mps 757 mmHg 91%
    05:00 +1°C° 0 mm 2 mps 756 mmHg 91%
    06:00 +1°C° 0 mm 3 mps 756 mmHg 91%
    07:00 +1°C° 0 mm 3 mps 756 mmHg 90%
    08:00 +1°C° 0 mm 3 mps 756 mmHg 89%
    09:00 +3°C° 0 mm 4 mps 756 mmHg 81%
    10:00 +3°C° 0 mm 5 mps 756 mmHg 74%
    11:00 +6°C° 0 mm 5 mps 755 mmHg 66%
    12:00 +7°C° 0 mm 5 mps 755 mmHg 62%
    13:00 +8°C° 0 mm 6 mps 755 mmHg 58%
    14:00 +9°C° 0 mm 6 mps 754 mmHg 55%
    15:00 +8°C° 0 mm 5 mps 754 mmHg 57%
    16:00 +8°C° 0 mm 5 mps 754 mmHg 60%
    17:00 +7°C° 0 mm 4 mps 754 mmHg 62%
    18:00 +6°C° 0 mm 4 mps 754 mmHg 66%
    19:00 +5°C° 0 mm 4 mps 754 mmHg 70%
    20:00 +4°C° 0 mm 4 mps 754 mmHg 74%
    21:00 +4°C° 0 mm 4 mps 754 mmHg 77%
    22:00 +3°C° 0 mm 4 mps 755 mmHg 79%
    23:00 +3°C° 0 mm 3 mps 755 mmHg 81%

    Tomorrow, 18 February, Monday

    Time Temperature Precipitation Wind Pressure Humidity
    00:00 +3°C° 0 mm 3 mps 755 mmHg 83%
    01:00 +2°C° 0 mm 3 mps 755 mmHg 86%
    02:00 +2°C° 0 mm 3 mps 756 mmHg 88%
    03:00 +2°C° 0 mm 3 mps 756 mmHg 89%
    04:00 +3°C° 0 mm 2 mps 756 mmHg 90%
    05:00 +3°C° 0 mm 2 mps 756 mmHg 91%
    06:00 +3°C° 0 mm 2 mps 756 mmHg 91%
    07:00 +3°C° 0 mm 2 mps 756 mmHg 91%
    08:00 +4°C° 0 mm 2 mps 756 mmHg 90%
    09:00 +3°C° 0 mm 3 mps 756 mmHg 84%
    10:00 +4°C° 0 mm 3 mps 757 mmHg 78%
    11:00 +5°C° 0 mm 3 mps 757 mmHg 72%
    12:00 +5°C° 0 mm 3 mps 757 mmHg 71%
    13:00 +5°C° 0 mm 3 mps 756 mmHg 70%
    14:00 +5°C° 0 mm 3 mps 756 mmHg 69%
    15:00 +6°C° 0 mm 2 mps 756 mmHg 71%
    16:00 +6°C° 0 mm 2 mps 756 mmHg 73%
    17:00 +7°C° 0 mm 1 mps 756 mmHg 75%
    18:00 +6°C° 0 mm 1 mps 756 mmHg 77%
    19:00 +6°C° 0 mm 1 mps 757 mmHg 79%
    20:00 +5°C° 0 mm 1 mps 757 mmHg 80%
    21:00 +5°C° 0 mm 1 mps 757 mmHg 82%
    22:00 +4°C° 0 mm 1 mps 757 mmHg 83%
    23:00 +4°C° 0 mm 1 mps 758 mmHg 85%

    Day after tomorrow, 19 February, Tuesday

    Time Temperature Precipitation Wind Pressure Humidity
    00:00 +2°C° 0 mm 2 mps 758 mmHg 85%
    01:00 +2°C° 0 mm 2 mps 758 mmHg 85%
    02:00 +1°C° 0 mm 2 mps 758 mmHg 86%
    03:00 +1°C° 0 mm 2 mps 758 mmHg 85%
    04:00 -1°C° 0 mm 2 mps 758 mmHg 84%
    05:00 -1°C° 0 mm 2 mps 758 mmHg 83%
    06:00 -1°C° 0 mm 2 mps 758 mmHg 80%
    07:00 -1°C° 0 mm 2 mps 758 mmHg 78%
    08:00 -1°C° 0 mm 3 mps 758 mmHg 76%
    09:00 0°C° 0 mm 3 mps 758 mmHg 70%
    10:00 +2°C° 0 mm 3 mps 758 mmHg 65%
    11:00 +3°C° 0 mm 4 mps 758 mmHg 60%
    12:00 +3°C° 0 mm 4 mps 757 mmHg 59%
    13:00 +4°C° 0 mm 4 mps 757 mmHg 59%
    14:00 +5°C° 0 mm 4 mps 757 mmHg 58%
    15:00 +4°C° 0 mm 4 mps 756 mmHg 60%
    16:00 +4°C° 0 mm 4 mps 756 mmHg 63%
    17:00 +4°C° 0 mm 4 mps 756 mmHg 65%
    18:00 +3°C° 0 mm 3 mps 756 mmHg 67%
    19:00 +2°C° 0 mm 3 mps 755 mmHg 68%
    20:00 +1°C° 0 mm 3 mps 755 mmHg 70%
    21:00 0°C° 0 mm 4 mps 755 mmHg 71%
    22:00 0°C° 0 mm 4 mps 755 mmHg 73%
    23:00 0°C° 0 mm 4 mps 755 mmHg 75%

    20 February, Wednesday

    Time Temperature Precipitation Wind Pressure Humidity
    00:00 -1°C° 0 mm 4 mps 754 mmHg 78%
    01:00 0°C° 0 mm 3 mps 754 mmHg 82%
    02:00 0°C° 0 mm 3 mps 754 mmHg 86%
    03:00 0°C° 0 mm 3 mps 754 mmHg 87%
    04:00 +1°C° 0 mm 2 mps 754 mmHg 88%
    05:00 +1°C° 0 mm 2 mps 753 mmHg 90%
    06:00 +2°C° 0 mm 2 mps 754 mmHg 91%
    07:00 +2°C° 0 mm 2 mps 754 mmHg 92%
    08:00 +2°C° 0 mm 2 mps 754 mmHg 93%
    09:00 +3°C° 0 mm 2 mps 754 mmHg 88%
    10:00 +5°C° 0 mm 2 mps 754 mmHg 83%
    11:00 +6°C° 0 mm 2 mps 754 mmHg 78%
    12:00 +7°C° 0 mm 3 mps 754 mmHg 73%
    13:00 +7°C° 0 mm 4 mps 754 mmHg 67%
    14:00 +8°C° 0 mm 4 mps 753 mmHg 62%
    15:00 +8°C° 0 mm 4 mps 753 mmHg 66%
    16:00 +7°C° 0 mm 4 mps 754 mmHg 70%
    17:00 +8°C° 0 mm 3 mps 754 mmHg 74%
    18:00 +7°C° 0 mm 3 mps 754 mmHg 74%
    19:00 +7°C° 0 mm 3 mps 754 mmHg 74%
    20:00 +5°C° 0 mm 4 mps 755 mmHg 75%
    21:00 +4°C° 0 mm 3 mps 755 mmHg 77%
    22:00 +5°C° 0 mm 2 mps 755 mmHg 79%
    23:00 +4°C° 0 mm 2 mps 755 mmHg 81%

    21 February, Thursday

    Time Temperature Precipitation Wind Pressure Humidity
    00:00 +3°C° 0 mm 2 mps 755 mmHg 83%
    01:00 +2°C° 0 mm 3 mps 755 mmHg 86%
    02:00 +2°C° 0 mm 3 mps 755 mmHg 88%
    03:00 +2°C° 0 mm 3 mps 755 mmHg 87%
    04:00 +1°C° 0 mm 4 mps 754 mmHg 86%
    05:00 +1°C° 0 mm 4 mps 754 mmHg 85%
    06:00 +1°C° 0 mm 4 mps 754 mmHg 85%
    07:00 +1°C° 0 mm 4 mps 755 mmHg 86%
    08:00 +1°C° 0 mm 4 mps 755 mmHg 87%
    09:00 +2°C° 0 mm 5 mps 755 mmHg 83%
    10:00 +3°C° 0 mm 5 mps 755 mmHg 78%
    11:00 +5°C° 0 mm 6 mps 755 mmHg 74%
    12:00 +5°C° 0 mm 6 mps 754 mmHg 72%
    13:00 +6°C° 0 mm 5 mps 754 mmHg 69%
    14:00 +7°C° 0 mm 5 mps 754 mmHg 67%
    15:00 +7°C° 0 mm 5 mps 754 mmHg 69%
    16:00 +7°C° 0 mm 4 mps 754 mmHg 70%
    17:00 +7°C° 0 mm 4 mps 753 mmHg 72%
    18:00 +7°C° 0 mm 3 mps 754 mmHg 74%
    19:00 +7°C° 0 mm 3 mps 754 mmHg 76%
    20:00 +5°C° 0 mm 3 mps 754 mmHg 78%
    21:00 +5°C° 0.1 mm 3 mps 754 mmHg 80%
    22:00 +5°C° 0.1 mm 3 mps 754 mmHg 81%
    23:00 +5°C° 0.1 mm 3 mps 754 mmHg 82%

    22 February, Friday

    Time Temperature Precipitation Wind Pressure Humidity
    00:00 +5°C° 0.2 mm 3 mps 753 mmHg 84%
    01:00 +4°C° 0.2 mm 3 mps 753 mmHg 86%
    02:00 +4°C° 0.2 mm 3 mps 753 mmHg 88%
    03:00 +4°C° 0.3 mm 3 mps 753 mmHg 89%
    04:00 +4°C° 0.3 mm 3 mps 752 mmHg 90%
    05:00 +4°C° 0.3 mm 3 mps 752 mmHg 91%
    06:00 +4°C° 0.3 mm 2 mps 752 mmHg 92%
    07:00 +4°C° 0.3 mm 2 mps 752 mmHg 92%
    08:00 +4°C° 0.3 mm 2 mps 751 mmHg 92%
    09:00 +5°C° 0.3 mm 2 mps 751 mmHg 90%
    10:00 +5°C° 0.3 mm 2 mps 751 mmHg 87%
    11:00 +6°C° 0.3 mm 2 mps 751 mmHg 85%
    12:00 +5°C° 0.3 mm 3 mps 751 mmHg 85%
    13:00 +4°C° 0.3 mm 3 mps 751 mmHg 85%
    14:00 +4°C° 0.3 mm 4 mps 751 mmHg 85%
    15:00 +2°C° 0.2 mm 5 mps 751 mmHg 83%
    16:00 -1°C° 0.2 mm 7 mps 751 mmHg 82%
    17:00 -2°C° 0.2 mm 8 mps 752 mmHg 80%
    18:00 -4°C° 0.3 mm 8 mps 753 mmHg 81%
    19:00 -5°C° 0.3 mm 9 mps 754 mmHg 81%
    20:00 -8°C° 0.3 mm 9 mps 755 mmHg 82%
    21:00 -8°C° 0.4 mm 9 mps 756 mmHg 80%
    22:00 -9°C° 0.4 mm 9 mps 758 mmHg 77%
    23:00 -9°C° 0.4 mm 9 mps 759 mmHg 75%
    Show more